Change the Weather History Date:

Thursday, September 6, 2012

  Actual Average (KMMV) Record (KMMV)
Temperature  
Mean Temperature 62 °F 64 °F  
Max Temperature 68 °F 79 °F 102 °F (1923)
Min Temperature 55 °F 49 °F 32 °F (1960)
Degree Days  
Heating Degree Days 4 3  
Month to date heating degree days 14  
Since 1 July heating degree days 99  
Cooling Degree Days 0 2  
Month to date cooling degree days 12  
Year to date cooling degree days 196  
Growing Degree Days 12 (Base 50)    
Moisture  
Dew Point 57 °F    
Average Humidity 93    
Maximum Humidity 100    
Minimum Humidity 68    
Precipitation  
Precipitation 0.00 in 0.04 in 0.62 in (1931)
Month to date precipitation 0.24  
Year to date precipitation 22.57  
Sea Level Pressure  
Sea Level Pressure 29.99 in    
Wind  
Wind Speed 2 mph (NW)    
Max Wind Speed 9 mph    
Max Gust Speed -    
Visibility 7 miles    
Events      
T = Trace of Precipitation, MM = Missing Value Source: NWS Daily Summary

Daily Weather History Graph

Daily Weather History Graph

Search for Another Location

Airport or City:

Trip Planner

Search our weather history database for the weather conditions in past years. The results will help you decide how hot, cold, wet, or windy it might be!

Date:

Astronomy

Sep. 06, 2012 Rise Set
Actual Time 7:43 AM MDT 8:42 PM MDT
Civil Twilight 7:13 AM MDT 9:12 PM MDT
Nautical Twilight 6:37 AM MDT 9:48 PM MDT
Astronomical Twilight 5:59 AM MDT 10:26 PM MDT
Moon 11:36 PM MDT (9/6) 2:08 PM MDT (9/6)
Length of Visible Light 13h 59m
Length of Day
12h 58m
Waning Gibbous, 67% of the Moon is Illuminated
Sep 6
Waning Gibbous
Sep 8
Last Quarter
Sep 15
New
Sep 22
First Quarter
Sep 29
Full

Hourly Weather History & Observations

Time (MDT) Temp. Dew Point Humidity Pressure Visibility Wind Dir Wind Speed Gust Speed Precip Events Conditions
12:15 AM 57.2 °F 57.2 °F 100% 29.98 in 10.0 mi Calm Calm - N/A   Overcast
12:55 AM 57.2 °F 57.2 °F 100% 29.98 in 7.0 mi Calm Calm - N/A   Overcast
1:35 AM 57.2 °F 57.2 °F 100% 29.97 in 7.0 mi Calm Calm - N/A   Overcast
1:55 AM 57.2 °F 57.2 °F 100% 29.98 in 7.0 mi Calm Calm - N/A   Overcast
2:15 AM 57.2 °F 57.2 °F 100% 29.99 in 5.0 mi Calm Calm - N/A   Overcast
2:35 AM 57.2 °F 57.2 °F 100% 29.98 in 5.0 mi Calm Calm - N/A   Overcast
2:55 AM 57.2 °F 57.2 °F 100% 29.97 in 4.0 mi Calm Calm - N/A   Overcast
3:15 AM 57.2 °F 57.2 °F 100% 29.97 in 4.0 mi Calm Calm - N/A   Overcast
3:35 AM 57.2 °F 57.2 °F 100% 29.97 in 4.0 mi Calm Calm - N/A   Overcast
3:55 AM 55.4 °F 55.4 °F 100% 29.97 in 3.0 mi Calm Calm - N/A   Overcast
4:15 AM 55.4 °F 55.4 °F 100% 29.97 in 4.0 mi Calm Calm - N/A   Overcast
4:35 AM 55.4 °F 55.4 °F 100% 29.97 in 4.0 mi Calm Calm - N/A   Overcast
4:55 AM 55.4 °F 55.4 °F 100% 29.96 in 3.0 mi Calm Calm - N/A   Overcast
5:15 AM 55.4 °F 55.4 °F 100% 29.97 in 2.5 mi Calm Calm - N/A   Overcast
5:35 AM 55.4 °F 55.4 °F 100% 29.97 in 4.0 mi Calm Calm - N/A   Overcast
5:55 AM 55.4 °F 55.4 °F 100% 29.97 in 4.0 mi Calm Calm - N/A   Overcast
6:15 AM 55.4 °F 55.4 °F 100% 29.96 in 5.0 mi Calm Calm - N/A   Overcast
6:35 AM 55.4 °F 55.4 °F 100% 29.96 in 10.0 mi ENE 3.5 mph - N/A   Overcast
6:55 AM 55.4 °F 55.4 °F 100% 29.96 in 10.0 mi Calm Calm - N/A   Overcast
7:15 AM 55.4 °F 55.4 °F 100% 29.97 in 10.0 mi Calm Calm - N/A   Overcast
7:35 AM 55.4 °F 55.4 °F 100% 29.97 in 7.0 mi Calm Calm - N/A   Overcast
7:55 AM 55.4 °F 55.4 °F 100% 29.97 in 4.0 mi Calm Calm - N/A   Overcast
8:15 AM 55.4 °F 55.4 °F 100% 29.98 in 7.0 mi Calm Calm - N/A   Overcast
8:35 AM 55.4 °F 55.4 °F 100% 29.98 in 10.0 mi ENE 4.6 mph - N/A   Overcast
8:55 AM 55.4 °F 55.4 °F 100% 29.98 in 10.0 mi Calm Calm - N/A   Overcast
9:15 AM 55.4 °F 55.4 °F 100% 29.99 in 10.0 mi Calm Calm - N/A   Overcast
9:35 AM 55.4 °F 55.4 °F 100% 29.99 in 10.0 mi Calm Calm - N/A   Overcast
9:55 AM 55.4 °F 55.4 °F 100% 29.99 in 7.0 mi Calm Calm - N/A   Overcast
10:15 AM 55.4 °F 55.4 °F 100% 29.99 in 10.0 mi Calm Calm - N/A   Overcast
10:35 AM 57.2 °F 57.2 °F 100% 29.99 in 10.0 mi Calm Calm - N/A   Overcast
10:55 AM 57.2 °F 57.2 °F 100% 29.99 in 10.0 mi Calm Calm - N/A   Overcast
11:15 AM 57.2 °F 57.2 °F 100% 29.99 in 10.0 mi Calm Calm - N/A   Overcast
11:35 AM 59.0 °F 57.2 °F 94% 29.99 in 10.0 mi West 3.5 mph - N/A   Overcast
11:55 AM 60.8 °F 57.2 °F 88% 30.00 in 10.0 mi NW 4.6 mph - N/A   Overcast
12:15 PM 60.8 °F 57.2 °F 88% 30.00 in 10.0 mi Calm Calm - N/A   Overcast
12:35 PM 62.6 °F 57.2 °F 82% 30.00 in 10.0 mi WNW 3.5 mph - N/A   Mostly Cloudy
12:55 PM 64.4 °F 57.2 °F 77% 30.00 in 10.0 mi Calm Calm - N/A   Scattered Clouds
1:15 PM 64.4 °F 57.2 °F 77% 29.99 in 10.0 mi West 4.6 mph - N/A   Clear
1:35 PM 66.2 °F 57.2 °F 73% 29.99 in - West 3.5 mph - N/A   Clear
1:55 PM 68.0 °F 57.2 °F 68% 29.99 in - NW 9.2 mph - N/A   Clear
2:15 PM 66.2 °F 57.2 °F 73% 29.99 in - NW 9.2 mph - N/A   Clear
2:35 PM 66.2 °F 57.2 °F 73% 29.99 in - NNW 9.2 mph - N/A   Clear
2:55 PM 66.2 °F 57.2 °F 73% 29.99 in - NW 6.9 mph - N/A   Clear
3:15 PM 66.2 °F 57.2 °F 73% 29.99 in - NNW 9.2 mph - N/A   Clear
3:35 PM 66.2 °F 57.2 °F 73% 30.00 in - NNW 8.1 mph - N/A   Clear
3:55 PM 66.2 °F 57.2 °F 73% 30.00 in - WNW 6.9 mph - N/A   Clear
4:15 PM 66.2 °F 57.2 °F 73% 29.99 in - NNW 6.9 mph - N/A   Clear
4:35 PM 66.2 °F 57.2 °F 73% 30.00 in - NW 8.1 mph - N/A   Clear
4:55 PM 66.2 °F 57.2 °F 73% 29.99 in - NW 8.1 mph - N/A   Clear
5:15 PM 66.2 °F 57.2 °F 73% 29.99 in - NW 4.6 mph - N/A   Clear
5:35 PM 64.4 °F 57.2 °F 77% 29.99 in - NW 6.9 mph - N/A   Clear
5:55 PM 64.4 °F 57.2 °F 77% 29.99 in - NW 6.9 mph - N/A   Clear
6:15 PM 64.4 °F 59.0 °F 83% 29.99 in - NW 5.8 mph - N/A   Scattered Clouds
6:35 PM 62.6 °F 59.0 °F 88% 29.99 in - NNW 8.1 mph - N/A   Mostly Cloudy
6:55 PM 60.8 °F 59.0 °F 94% 29.99 in - NNW 6.9 mph - N/A   Overcast
7:15 PM 60.8 °F 59.0 °F 94% 29.99 in - NNW 6.9 mph - N/A   Overcast
7:35 PM 60.8 °F 60.8 °F 100% 29.99 in - NNW 5.8 mph - N/A   Overcast
7:55 PM 59.0 °F 59.0 °F 100% 29.99 in - NNW 3.5 mph - N/A   Overcast
8:15 PM 59.0 °F 59.0 °F 100% 29.99 in - NW 3.5 mph - N/A   Overcast
8:35 PM 59.0 °F 59.0 °F 100% 29.99 in - NW 3.5 mph - N/A   Overcast
8:55 PM 59.0 °F 59.0 °F 100% 29.99 in - Calm Calm - N/A   Overcast
9:15 PM 57.2 °F 57.2 °F 100% 30.00 in - NW 3.5 mph - N/A   Overcast
9:35 PM 57.2 °F 57.2 °F 100% 30.00 in - Calm Calm - N/A   Overcast
9:55 PM 57.2 °F 57.2 °F 100% 30.01 in - North 3.5 mph - N/A   Overcast
10:15 PM 57.2 °F 57.2 °F 100% 30.01 in - Calm Calm - N/A   Overcast
10:35 PM 57.2 °F 57.2 °F 100% 30.01 in - Calm Calm - N/A   Overcast
10:55 PM 57.2 °F 57.2 °F 100% 30.01 in - Calm Calm - N/A   Overcast
11:15 PM 57.2 °F 57.2 °F 100% 30.01 in - Calm Calm - N/A   Overcast
11:35 PM 57.2 °F 57.2 °F 100% 30.01 in - Calm Calm - N/A   Overcast
11:55 PM 57.2 °F 57.2 °F 100% 30.02 in - Calm Calm - N/A   Overcast